Project,Study,Ord_Occ,Event_Num,Cast_ID,Date_Time_UTC,Date_Time_PST,Lat_Dec,Lon_Dec,Sta_ID,Line,Sta,Depth,Pressure,PrQ,Temp1,Temp1Q,Temp2,Temp2Q,TempAve,Salt1,Salt1Q,Salt1_Corr,Salt2,Salt2Q,Salt2_Corr,SaltAve_Corr,Ox1,Ox1Q,Ox1_CruiseCorr,Ox1_StaCorr,Ox2,Ox2Q,Ox2_CruiseCorr,Ox2_StaCorr,OxAve_StaCorr,Ox1uM,Ox1uM_CruiseCorr,Ox1uM_StaCorr,Ox2uM,Ox2uM_CruiseCorr,Ox2uM_StaCorr,OxAveuM_StaCorr,FluorV,FluorQ,EstChl_CruiseCorr,EstChl_StaCorr,ISUSV,ISUSQ,EstNO3_CruiseCorr,EstNO3_StaCorr,SigThetaTS1,SigThetaTS1Q,SigThetaTS2,SigThetaTS2Q,BAT,XMiss,TransQ,pH,pHQ,SPAR,SPARQ,PAR,PARQ,PoT1,PoT2,DynHt,SVA,OxSat1,OxSat2,BTL_Depth,BTL_Temp,SaltB,OxB,OxBuM,Chl-a,Phaeo,NO3,NO2,NH4,PO4,SIL
CalCOFI,2007SR,035,37,2007_035u,19-Jul-2020 16:30:05,19-Jul-2020 08:30:05,33.82315,-118.62728,086.7 035.0,086.7,035.0,515.000,519.344,,6.5447,,6.5500,,6.5474,34.2890,,34.2892,34.2900,,34.2916,34.2904,0.3979,,0.3981,0.4791,1.9123,,0.6240,0.9863,0.7327,17.302,17.5735,37.3970,83.165,,47.2606,42.3288,0.0308,,,,-99.0,,-99.0,-99.0,26.9265,,26.9266,,0.6642,84.6993,,7.542,,7.0973E+02,,1.1048E-01,,6.4973,6.5026,0.8749,,5.805,27.904,,,,,,,,,,,,
CalCOFI,2007SR,035,37,2007_035u,19-Jul-2020 16:30:19,19-Jul-2020 08:30:19,33.82318,-118.62728,086.7 035.0,086.7,035.0,514.000,518.334,,6.5681,,6.5648,,6.5665,34.2869,,34.2871,34.2888,,34.2904,34.2888,0.3981,,0.3983,0.4793,1.9009,,0.5968,0.9575,0.7184,17.313,17.5849,37.4041,82.667,,46.4433,41.9237,0.0319,,,,-99.0,,-99.0,-99.0,26.9218,,26.9237,,0.6651,84.6810,,7.543,,7.2082E+02,,1.0958E-01,,6.5207,6.5174,0.8752,,5.811,27.746,514,6.568,34.2888,,18.05,,,38.02,0.00,0.06,3.07,71.05
CalCOFI,2007SR,035,37,2007_035u,19-Jul-2020 16:30:21,19-Jul-2020 08:30:21,33.82318,-118.62728,086.7 035.0,086.7,035.0,513.000,517.325,,6.5590,,6.5593,,6.5592,34.2876,,34.2878,34.2890,,34.2906,34.2892,0.4079,,0.4085,0.4894,1.8991,,0.5925,0.9530,0.7212,17.737,18.0276,37.6769,82.589,,46.3153,41.9961,0.0311,,,,-99.0,,-99.0,-99.0,26.9235,,26.9245,,0.6658,84.6650,,7.543,,7.2256E+02,,1.1275E-01,,6.5117,6.5121,0.8752,,5.953,27.716,,,,,,,,,,,,
CalCOFI,2007SR,035,37,2007_035u,19-Jul-2020 16:30:22,19-Jul-2020 08:30:22,33.82317,-118.62728,086.7 035.0,086.7,035.0,512.000,516.315,,6.5687,,6.5688,,6.5688,34.2870,,34.2872,34.2887,,34.2903,34.2888,0.4148,,0.4157,0.4965,1.8907,,0.5725,0.9318,0.7142,18.039,18.3428,37.8712,82.223,,45.7147,41.7930,0.0309,,,,-99.0,,-99.0,-99.0,26.9217,,26.9230,,0.6649,84.6859,,7.542,,7.2364E+02,,1.0859E-01,,6.5215,6.5216,0.8752,,6.055,27.599,,,,,,,,,,,,
CalCOFI,2007SR,035,37,2007_035u,19-Jul-2020 16:30:23,19-Jul-2020 08:30:23,33.82316,-118.62728,086.7 035.0,086.7,035.0,511.000,515.305,,6.5883,,6.5889,,6.5886,34.2853,,34.2855,34.2869,,34.2885,34.2870,0.4180,,0.4191,0.4997,1.8888,,0.5679,0.9270,0.7134,18.180,18.4900,37.9619,82.145,,45.5867,41.7743,0.0313,,,,-99.0,,-99.0,-99.0,26.9178,,26.9190,,0.6624,84.7377,,7.543,,7.2362E+02,,1.0849E-01,,6.5411,6.5417,0.8752,,6.105,27.585,,,,,,,,,,,,
CalCOFI,2007SR,035,37,2007_035u,19-Jul-2020 16:30:24,19-Jul-2020 08:30:24,33.82317,-118.62728,086.7 035.0,086.7,035.0,510.000,514.296,,6.6036,,6.6043,,6.6040,34.2834,,34.2836,34.2849,,34.2865,34.2851,0.4187,,0.4198,0.5005,1.8908,,0.5727,0.9320,0.7163,18.209,18.5203,37.9806,82.229,,45.7246,41.8526,0.0311,,,,-99.0,,-99.0,-99.0,26.9143,,26.9153,,0.6586,84.8186,,7.543,,7.2362E+02,,1.1269E-01,,6.5564,6.5572,0.8752,,6.117,27.623,,,,,,,,,,,,
CalCOFI,2007SR,035,37,2007_035u,19-Jul-2020 16:30:25,19-Jul-2020 08:30:25,33.82318,-118.62728,086.7 035.0,086.7,035.0,509.000,513.286,,6.6129,,6.6125,,6.6127,34.2829,,34.2831,34.2844,,34.2860,34.2846,0.4257,,0.4271,0.5077,1.8833,,0.5548,0.9131,0.7104,18.514,18.8387,38.1768,81.904,,45.1912,41.6840,0.0311,,,,-99.0,,-99.0,-99.0,26.9127,,26.9139,,0.6585,84.8216,,7.543,,7.2538E+02,,1.0788E-01,,6.5658,6.5654,0.8752,,6.220,27.519,,,,,,,,,,,,
CalCOFI,2007SR,035,37,2007_035u,19-Jul-2020 16:30:26,19-Jul-2020 08:30:26,33.82318,-118.62728,086.7 035.0,086.7,035.0,508.000,512.276,,6.6218,,6.6239,,6.6229,34.2826,,34.2828,34.2842,,34.2858,34.2843,0.4278,,0.4293,0.5098,1.8829,,0.5538,0.9121,0.7110,18.604,18.9326,38.2347,81.887,,45.1633,41.6990,0.0311,,,,-99.0,,-99.0,-99.0,26.9112,,26.9122,,0.6595,84.8000,,7.542,,7.2800E+02,,1.0854E-01,,6.5748,6.5768,0.8752,,6.252,27.521,,,,,,,,,,,,
CalCOFI,2007SR,035,37,2007_035u,19-Jul-2020 16:30:28,19-Jul-2020 08:30:28,33.82318,-118.62728,086.7 035.0,086.7,035.0,507.000,511.267,,6.6395,,6.6401,,6.6398,34.2814,,34.2816,34.2827,,34.2843,34.2830,0.4341,,0.4359,0.5163,1.8828,,0.5536,0.9119,0.7141,18.879,19.2197,38.4116,81.884,,45.1584,41.7850,0.0305,,,,-99.0,,-99.0,-99.0,26.9079,,26.9088,,0.6604,84.7815,,7.542,,7.2870E+02,,1.0215E-01,,6.5925,6.5931,0.8752,,6.347,27.529,,,,,,,,,,,,
CalCOFI,2007SR,035,37,2007_035u,19-Jul-2020 16:30:29,19-Jul-2020 08:30:29,33.82318,-118.62728,086.7 035.0,086.7,035.0,506.000,510.257,,6.6464,,6.6462,,6.6463,34.2808,,34.2810,34.2822,,34.2838,34.2824,0.4370,,0.4389,0.5193,1.8835,,0.5553,0.9136,0.7165,19.006,19.3523,38.4933,81.911,,45.2027,41.8480,0.0314,,,,-99.0,,-99.0,-99.0,26.9064,,26.9076,,0.6598,84.7934,,7.542,,7.2671E+02,,1.0872E-01,,6.5995,6.5992,0.8752,,6.391,27.542,,,,,,,,,,,,
CalCOFI,2007SR,035,37,2007_035u,19-Jul-2020 16:30:30,19-Jul-2020 08:30:30,33.82317,-118.62728,086.7 035.0,086.7,035.0,505.000,509.247,,6.6626,,6.6616,,6.6621,34.2791,,34.2793,34.2808,,34.2824,34.2809,0.4448,,0.4471,0.5273,1.8818,,0.5512,0.9093,0.7183,19.345,19.7061,38.7115,81.841,,45.0878,41.8997,0.0307,,,,-99.0,,-99.0,-99.0,26.9030,,26.9045,,0.6552,84.8903,,7.542,,7.2553E+02,,1.1151E-01,,6.6157,6.6147,0.8752,,6.507,27.528,,,,,,,,,,,,
CalCOFI,2007SR,035,37,2007_035u,19-Jul-2020 16:30:31,19-Jul-2020 08:30:31,33.82316,-118.62728,086.7 035.0,086.7,035.0,504.000,508.238,,6.6731,,6.6732,,6.6732,34.2774,,34.2776,34.2788,,34.2804,34.2790,0.4457,,0.4480,0.5282,1.8757,,0.5367,0.8940,0.7111,19.385,19.7479,38.7372,81.574,,44.6497,41.6935,0.0312,,,,-99.0,,-99.0,-99.0,26.9002,,26.9013,,0.6501,84.9999,,7.541,,7.2536E+02,,1.0976E-01,,6.6263,6.6264,0.8752,,6.522,27.445,,,,,,,,,,,,
CalCOFI,2007SR,035,37,2007_035u,19-Jul-2020 16:30:32,19-Jul-2020 08:30:32,33.82316,-118.62728,086.7 035.0,086.7,035.0,503.000,507.228,,6.6832,,6.6826,,6.6829,34.2764,,34.2766,34.2780,,34.2796,34.2781,0.4497,,0.4522,0.5323,1.8727,,0.5295,0.8864,0.7094,19.559,19.9295,38.8491,81.446,,44.4396,41.6444,0.0323,,,,-99.0,,-99.0,-99.0,26.8981,,26.8994,,0.6459,85.0892,,7.542,,7.2655E+02,,1.0201E-01,,6.6364,6.6358,0.8752,,6.582,27.408,,,,,,,,,,,,
CalCOFI,2007SR,035,37,2007_035u,19-Jul-2020 16:30:33,19-Jul-2020 08:30:33,33.82318,-118.62728,086.7 035.0,086.7,035.0,502.000,506.218,,6.6982,,6.6973,,6.6978,34.2752,,34.2754,34.2769,,34.2785,34.2770,0.4519,,0.4545,0.5346,1.8742,,0.5331,0.8902,0.7124,19.655,20.0298,38.9109,81.508,,44.5413,41.7261,0.0309,,,,-99.0,,-99.0,-99.0,26.8951,,26.8966,,0.6450,85.1067,,7.542,,7.2977E+02,,1.0391E-01,,6.6515,6.6506,0.8752,,6.616,27.438,,,,,,,,,,,,
CalCOFI,2007SR,035,37,2007_035u,19-Jul-2020 16:30:34,19-Jul-2020 08:30:34,33.82318,-118.62728,086.7 035.0,086.7,035.0,501.000,505.209,,6.7059,,6.7058,,6.7059,34.2749,,34.2751,34.2765,,34.2781,34.2766,0.4507,,0.4532,0.5334,1.8739,,0.5324,0.8894,0.7114,19.599,19.9713,38.8749,81.496,,44.5217,41.6983,0.0315,,,,-99.0,,-99.0,-99.0,26.8938,,26.8951,,0.6469,85.0689,,7.542,,7.3166E+02,,1.0301E-01,,6.6592,6.6591,0.8752,,6.599,27.439,,,,,,,,,,,,
CalCOFI,2007SR,035,37,2007_035u,19-Jul-2020 16:30:35,19-Jul-2020 08:30:35,33.82318,-118.62728,086.7 035.0,086.7,035.0,500.000,504.199,,6.7153,,6.7145,,6.7149,34.2746,,34.2748,34.2760,,34.2776,34.2762,0.4552,,0.4579,0.5380,1.8738,,0.5321,0.8892,0.7136,19.797,20.1780,39.0023,81.491,,44.5134,41.7579,0.0311,,,,-99.0,,-99.0,-99.0,26.8923,,26.8936,,0.6475,85.0555,,7.543,,7.3316E+02,,1.0299E-01,,6.6687,6.6679,0.8752,,6.667,27.443,,,,,,,,,,,,
CalCOFI,2007SR,035,37,2007_035u,19-Jul-2020 16:30:36,19-Jul-2020 08:30:36,33.82318,-118.62728,086.7 035.0,086.7,035.0,499.000,503.189,,6.7210,,6.7205,,6.7208,34.2741,,34.2743,34.2756,,34.2772,34.2758,0.4586,,0.4615,0.5415,1.8732,,0.5307,0.8876,0.7146,19.945,20.3325,39.0975,81.468,,44.4757,41.7866,0.0317,,,,-99.0,,-99.0,-99.0,26.8912,,26.8924,,0.6477,85.0505,,7.543,,7.3241E+02,,1.0834E-01,,6.6744,6.6739,0.8752,,6.717,27.439,,,,,,,,,,,,
CalCOFI,2007SR,035,37,2007_035u,19-Jul-2020 16:30:37,19-Jul-2020 08:30:37,33.82318,-118.62728,086.7 035.0,086.7,035.0,498.000,502.180,,6.7304,,6.7309,,6.7307,34.2731,,34.2733,34.2747,,34.2763,34.2748,0.4560,,0.4588,0.5388,1.8725,,0.5290,0.8859,0.7124,19.833,20.2156,39.0254,81.436,,44.4232,41.7243,0.0309,,,,-99.0,,-99.0,-99.0,26.8891,,26.8903,,0.6462,85.0824,,7.544,,7.3124E+02,,1.0743E-01,,6.6839,6.6844,0.8752,,6.681,27.434,,,,,,,,,,,,
CalCOFI,2007SR,035,37,2007_035u,19-Jul-2020 16:30:38,19-Jul-2020 08:30:38,33.82318,-118.62728,086.7 035.0,086.7,035.0,497.000,501.170,,6.7326,,6.7329,,6.7328,34.2727,,34.2729,34.2738,,34.2754,34.2742,0.4556,,0.4584,0.5384,1.8722,,0.5283,0.8851,0.7118,19.817,20.1989,39.0151,81.422,,44.4002,41.7077,0.0315,,,,-99.0,,-99.0,-99.0,26.8885,,26.8893,,0.6453,85.1017,,7.544,,7.3124E+02,,9.7011E-02,,6.6862,6.6865,0.8752,,6.676,27.430,,,,,,,,,,,,
CalCOFI,2007SR,035,37,2007_035u,19-Jul-2020 16:30:39,19-Jul-2020 08:30:39,33.82318,-118.62728,086.7 035.0,086.7,035.0,496.000,500.161,,6.7323,,6.7324,,6.7324,34.2726,,34.2728,34.2738,,34.2754,34.2741,0.4609,,0.4639,0.5438,1.8719,,0.5276,0.8844,0.7141,20.046,20.4379,39.1625,81.412,,44.3838,41.7732,0.0305,,,,-99.0,,-99.0,-99.0,26.8884,,26.8894,,0.6441,85.1265,,7.545,,7.3002E+02,,1.0420E-01,,6.6860,6.6861,0.8752,,6.753,27.427,,,,,,,,,,,,
CalCOFI,2007SR,035,37,2007_035u,19-Jul-2020 16:30:40,19-Jul-2020 08:30:40,33.82316,-118.62728,086.7 035.0,086.7,035.0,495.000,499.151,,6.7331,,6.7331,,6.7331,34.2724,,34.2726,34.2737,,34.2753,34.2740,0.4587,,0.4616,0.5416,1.8717,,0.5271,0.8839,0.7128,19.949,20.3367,39.1001,81.400,,44.3641,41.7321,0.0311,,,,-99.0,,-99.0,-99.0,26.8882,,26.8892,,0.6441,85.1263,,7.546,,7.2950E+02,,9.9038E-02,,6.6869,6.6869,0.8752,,6.721,27.423,,,,,,,,,,,,
CalCOFI,2007SR,035,37,2007_035u,19-Jul-2020 16:30:41,19-Jul-2020 08:30:41,33.82316,-118.62728,086.7 035.0,086.7,035.0,494.000,498.141,,6.7352,,6.7359,,6.7356,34.2723,,34.2725,34.2736,,34.2752,34.2739,0.4639,,0.4670,0.5469,1.8695,,0.5219,0.8783,0.7126,20.176,20.5736,39.2461,81.305,,44.2082,41.7272,0.0317,,,,-99.0,,-99.0,-99.0,26.8878,,26.8887,,0.6439,85.1308,,7.545,,7.3136E+02,,1.0491E-01,,6.6891,6.6898,0.8752,,6.797,27.393,,,,,,,,,,,,
CalCOFI,2007SR,035,37,2007_035u,19-Jul-2020 16:30:42,19-Jul-2020 08:30:42,33.82318,-118.62728,086.7 035.0,086.7,035.0,493.000,497.132,,6.7426,,6.7424,,6.7425,34.2720,,34.2722,34.2735,,34.2751,34.2737,0.4677,,0.4710,0.5508,1.8705,,0.5242,0.8808,0.7158,20.342,20.7469,39.3529,81.349,,44.2804,41.8167,0.0316,,,,-99.0,,-99.0,-99.0,26.8866,,26.8877,,0.6430,85.1497,,7.546,,7.3379E+02,,9.7761E-02,,6.6965,6.6964,0.8752,,6.855,27.412,,,,,,,,,,,,
CalCOFI,2007SR,035,37,2007_035u,19-Jul-2020 16:30:43,19-Jul-2020 08:30:43,33.82318,-118.62728,086.7 035.0,086.7,035.0,492.000,496.122,,6.7557,,6.7561,,6.7559,34.2710,,34.2712,34.2723,,34.2739,34.2726,0.4746,,0.4782,0.5579,1.8703,,0.5238,0.8803,0.7191,20.639,21.0570,39.5440,81.339,,44.2640,41.9040,0.0309,,,,-99.0,,-99.0,-99.0,26.8840,,26.8850,,0.6423,85.1646,,7.546,,7.3596E+02,,1.0291E-01,,6.7097,6.7101,0.8752,,6.957,27.417,,,,,,,,,,,,
CalCOFI,2007SR,035,37,2007_035u,19-Jul-2020 16:30:44,19-Jul-2020 08:30:44,33.82318,-118.62728,086.7 035.0,086.7,035.0,491.000,495.113,,6.7633,,6.7636,,6.7635,34.2698,,34.2700,34.2712,,34.2728,34.2714,0.4746,,0.4782,0.5579,1.8671,,0.5161,0.8723,0.7151,20.639,21.0570,39.5440,81.202,,44.0392,41.7916,0.0311,,,,-99.0,,-99.0,-99.0,26.8820,,26.8831,,0.6418,85.1754,,7.546,,7.3696E+02,,1.0198E-01,,6.7174,6.7177,0.8752,,6.958,27.375,,,,,,,,,,,,
CalCOFI,2007SR,035,37,2007_035u,19-Jul-2020 16:30:45,19-Jul-2020 08:30:45,33.82318,-118.62728,086.7 035.0,086.7,035.0,490.000,494.103,,6.7718,,6.7720,,6.7719,34.2689,,34.2691,34.2703,,34.2719,34.2705,0.4801,,0.4840,0.5636,1.8634,,0.5073,0.8629,0.7133,20.879,21.3075,39.6984,81.041,,43.7750,41.7367,0.0312,,,,-99.0,,-99.0,-99.0,26.8802,,26.8812,,0.6391,85.2324,,7.546,,7.3574E+02,,9.9585E-02,,6.7260,6.7261,0.8752,,7.040,27.326,,,,,,,,,,,,
CalCOFI,2007SR,035,37,2007_035u,19-Jul-2020 16:30:46,19-Jul-2020 08:30:46,33.82318,-118.62728,086.7 035.0,086.7,035.0,489.000,493.093,,6.7773,,6.7780,,6.7777,34.2689,,34.2691,34.2701,,34.2717,34.2704,0.4796,,0.4834,0.5631,1.8654,,0.5121,0.8680,0.7156,20.860,21.2877,39.6862,81.127,,43.9161,41.8012,0.0312,,,,-99.0,,-99.0,-99.0,26.8794,,26.8802,,0.6396,85.2236,,7.546,,7.3504E+02,,1.0493E-01,,6.7315,6.7322,0.8752,,7.034,27.359,,,,,,,,,,,,
CalCOFI,2007SR,035,37,2007_035u,19-Jul-2020 16:30:47,19-Jul-2020 08:30:47,33.82318,-118.62728,086.7 035.0,086.7,035.0,488.000,492.084,,6.7897,,6.7900,,6.7899,34.2677,,34.2679,34.2691,,34.2707,34.2693,0.4807,,0.4846,0.5642,1.8674,,0.5168,0.8730,0.7186,20.905,21.3346,39.7151,81.214,,44.0589,41.8870,0.0308,,,,-99.0,,-99.0,-99.0,26.8768,,26.8778,,0.6386,85.2440,,7.546,,7.3505E+02,,1.0234E-01,,6.7440,6.7442,0.8752,,7.051,27.395,,,,,,,,,,,,
CalCOFI,2007SR,035,37,2007_035u,19-Jul-2020 16:30:48,19-Jul-2020 08:30:48,33.82318,-118.62728,086.7 035.0,086.7,035.0,487.000,491.074,,6.7938,,6.7941,,6.7940,34.2671,,34.2673,34.2683,,34.2699,34.2686,0.4829,,0.4869,0.5664,1.8620,,0.5040,0.8594,0.7129,21.001,21.4348,39.7769,80.978,,43.6716,41.7243,0.0317,,,,-99.0,,-99.0,-99.0,26.8757,,26.8767,,0.6386,85.2441,,7.546,,7.3505E+02,,9.9533E-02,,6.7482,6.7484,0.8752,,7.085,27.318,,,,,,,,,,,,
CalCOFI,2007SR,035,37,2007_035u,19-Jul-2020 16:30:49,19-Jul-2020 08:30:49,33.82317,-118.62728,086.7 035.0,086.7,035.0,486.000,490.065,,6.7951,,6.7957,,6.7954,34.2668,,34.2670,34.2683,,34.2699,34.2685,0.4850,,0.4891,0.5686,1.8640,,0.5087,0.8644,0.7165,21.092,21.5298,39.8355,81.069,,43.8209,41.8282,0.0314,,,,-99.0,,-99.0,-99.0,26.8753,,26.8764,,0.6386,85.2450,,7.546,,7.3453E+02,,9.6607E-02,,6.7496,6.7501,0.8752,,7.116,27.350,,,,,,,,,,,,
CalCOFI,2007SR,035,37,2007_035u,19-Jul-2020 16:30:50,19-Jul-2020 08:30:50,33.82316,-118.62728,086.7 035.0,086.7,035.0,485.000,489.055,,6.8086,,6.8086,,6.8086,34.2676,,34.2678,34.2689,,34.2705,34.2692,0.4824,,0.4864,0.5659,1.8597,,0.4985,0.8536,0.7098,20.982,21.4150,39.7647,80.879,,43.5091,41.6369,0.0312,,,,-99.0,,-99.0,-99.0,26.8741,,26.8751,,0.6397,85.2207,,7.546,,7.3316E+02,,1.0268E-01,,6.7631,6.7631,0.8752,,7.081,27.294,,,,,,,,,,,,
CalCOFI,2007SR,035,37,2007_035u,19-Jul-2020 16:30:51,19-Jul-2020 08:30:51,33.82317,-118.62728,086.7 035.0,086.7,035.0,484.000,488.046,,6.8200,,6.8203,,6.8202,34.2677,,34.2679,34.2694,,34.2710,34.2695,0.4888,,0.4930,0.5725,1.8624,,0.5049,0.8604,0.7165,21.260,21.7052,39.9435,80.998,,43.7044,41.8240,0.0311,,,,-99.0,,-99.0,-99.0,26.8726,,26.8739,,0.6433,85.1435,,7.546,,7.3449E+02,,1.0009E-01,,6.7745,6.7749,0.8752,,7.176,27.341,,,,,,,,,,,,
CalCOFI,2007SR,035,37,2007_035u,19-Jul-2020 16:30:52,19-Jul-2020 08:30:52,33.82318,-118.62728,086.7 035.0,086.7,035.0,483.000,487.036,,6.8336,,6.8340,,6.8338,34.2675,,34.2677,34.2689,,34.2705,34.2691,0.4912,,0.4956,0.5750,1.8673,,0.5166,0.8728,0.7239,21.363,21.8127,40.0098,81.210,,44.0523,42.0311,0.0308,,,,-99.0,,-99.0,-99.0,26.8707,,26.8717,,0.6447,85.1134,,7.546,,7.3637E+02,,9.9499E-02,,6.7882,6.7886,0.8752,,7.213,27.421,,,,,,,,,,,,
CalCOFI,2007SR,035,37,2007_035u,19-Jul-2020 16:30:53,19-Jul-2020 08:30:53,33.82318,-118.62728,086.7 035.0,086.7,035.0,482.000,486.027,,6.8389,,6.8390,,6.8390,34.2671,,34.2673,34.2685,,34.2701,34.2687,0.4930,,0.4974,0.5768,1.8622,,0.5044,0.8599,0.7184,21.440,21.8931,40.0594,80.992,,43.6946,41.8770,0.0304,,,,-99.0,,-99.0,-99.0,26.8696,,26.8707,,0.6461,85.0844,,7.546,,7.3865E+02,,9.9073E-02,,6.7936,6.7937,0.8752,,7.240,27.351,,,,,,,,,,,,
CalCOFI,2007SR,035,37,2007_035u,19-Jul-2020 16:30:54,19-Jul-2020 08:30:54,33.82318,-118.62728,086.7 035.0,086.7,035.0,481.000,485.017,,6.8429,,6.8428,,6.8429,34.2663,,34.2665,34.2676,,34.2692,34.2679,0.5010,,0.5058,0.5851,1.8591,,0.4970,0.8521,0.7186,21.790,22.2585,40.2845,80.854,,43.4681,41.8763,0.0312,,,,-99.0,,-99.0,-99.0,26.8685,,26.8695,,0.6456,85.0954,,7.546,,7.3886E+02,,1.0356E-01,,6.7976,6.7976,0.8752,,7.359,27.306,,,,,,,,,,,,
CalCOFI,2007SR,035,37,2007_035u,19-Jul-2020 16:30:55,19-Jul-2020 08:30:55,33.82318,-118.62728,086.7 035.0,086.7,035.0,480.000,484.008,,6.8447,,6.8448,,6.8448,34.2653,,34.2655,34.2666,,34.2682,34.2669,0.5109,,0.5161,0.5952,1.8645,,0.5099,0.8657,0.7305,22.219,22.7063,40.5605,81.091,,43.8570,42.2088,0.0323,,,,-99.0,,-99.0,-99.0,26.8673,,26.8684,,0.6422,85.1671,,7.546,,7.3782E+02,,9.7382E-02,,6.7995,6.7996,0.8752,,7.504,27.387,,,,,,,,,,,,
CalCOFI,2007SR,035,37,2007_035u,19-Jul-2020 16:30:56,19-Jul-2020 08:30:56,33.82318,-118.62728,086.7 035.0,086.7,035.0,479.000,482.998,,6.8525,,6.8530,,6.8528,34.2645,,34.2647,34.2658,,34.2674,34.2661,0.5186,,0.5242,0.6031,1.8642,,0.5092,0.8649,0.7340,22.554,23.0560,40.7761,81.079,,43.8373,42.3067,0.0315,,,,-99.0,,-99.0,-99.0,26.8657,,26.8667,,0.6404,85.2047,,7.546,,7.3640E+02,,1.0150E-01,,6.8074,6.8079,0.8752,,7.619,27.389,,,,,,,,,,,,
CalCOFI,2007SR,035,37,2007_035u,19-Jul-2020 16:30:57,19-Jul-2020 08:30:57,33.82318,-118.62728,086.7 035.0,086.7,035.0,478.000,481.989,,6.8680,,6.8695,,6.8688,34.2628,,34.2630,34.2641,,34.2657,34.2644,0.5215,,0.5272,0.6061,1.8611,,0.5018,0.8571,0.7316,22.681,23.1886,40.8578,80.944,,43.6158,42.2368,0.0309,,,,-99.0,,-99.0,-99.0,26.8622,,26.8631,,0.6383,85.2495,,7.546,,7.3506E+02,,1.0522E-01,,6.8229,6.8244,0.8752,,7.664,27.353,,,,,,,,,,,,
CalCOFI,2007SR,035,37,2007_035u,19-Jul-2020 16:30:58,19-Jul-2020 08:30:58,33.82316,-118.62728,086.7 035.0,086.7,035.0,477.000,480.979,,6.8828,,6.8829,,6.8829,34.2595,,34.2597,34.2609,,34.2625,34.2611,0.5248,,0.5307,0.6095,1.8596,,0.4982,0.8533,0.7314,22.825,23.3389,40.9504,80.879,,43.5091,42.2298,0.0310,,,,-99.0,,-99.0,-99.0,26.8576,,26.8587,,0.6381,85.2548,,7.546,,7.3505E+02,,1.0069E-01,,6.8378,6.8379,0.8752,,7.715,27.339,,,,,,,,,,,,
CalCOFI,2007SR,035,37,2007_035u,19-Jul-2020 16:30:59,19-Jul-2020 08:30:59,33.82316,-118.62728,086.7 035.0,086.7,035.0,476.000,479.970,,6.8879,,6.8881,,6.8880,34.2584,,34.2586,34.2597,,34.2613,34.2600,0.5318,,0.5380,0.6167,1.8577,,0.4937,0.8485,0.7326,23.131,23.6584,41.1473,80.796,,43.3729,42.2601,0.0316,,,,-99.0,,-99.0,-99.0,26.8561,,26.8571,,0.6357,85.3059,,7.547,,7.3577E+02,,1.0189E-01,,6.8430,6.8432,0.8752,,7.819,27.314,,,,,,,,,,,,
CalCOFI,2007SR,035,37,2007_035u,19-Jul-2020 16:31:00,19-Jul-2020 08:31:00,33.82318,-118.62728,086.7 035.0,086.7,035.0,475.000,478.960,,6.8944,,6.8952,,6.8948,34.2582,,34.2584,34.2594,,34.2610,34.2597,0.5371,,0.5435,0.6222,1.8603,,0.4999,0.8551,0.7387,23.360,23.8974,41.2947,80.908,,43.5567,42.4257,0.0314,,,,-99.0,,-99.0,-99.0,26.8550,,26.8558,,0.6343,85.3372,,7.546,,7.3694E+02,,9.8052E-02,,6.8496,6.8504,0.8752,,7.898,27.356,,,,,,,,,,,,
CalCOFI,2007SR,035,37,2007_035u,19-Jul-2020 16:31:01,19-Jul-2020 08:31:01,33.82318,-118.62728,086.7 035.0,086.7,035.0,474.000,477.951,,6.9056,,6.9061,,6.9059,34.2563,,34.2565,34.2577,,34.2593,34.2579,0.5355,,0.5418,0.6205,1.8568,,0.4915,0.8463,0.7334,23.289,23.8233,41.2490,80.755,,43.3056,42.2773,0.0318,,,,-99.0,,-99.0,-99.0,26.8520,,26.8530,,0.6365,85.2897,,7.548,,7.3695E+02,,9.4416E-02,,6.8608,6.8613,0.8752,,7.876,27.311,,,,,,,,,,,,
CalCOFI,2007SR,035,37,2007_035u,19-Jul-2020 16:31:02,19-Jul-2020 08:31:02,33.82318,-118.62728,086.7 035.0,086.7,035.0,473.000,476.941,,6.9079,,6.9085,,6.9082,34.2552,,34.2554,34.2564,,34.2580,34.2567,0.5349,,0.5412,0.6199,1.8567,,0.4913,0.8460,0.7330,23.262,23.7951,41.2316,80.753,,43.3023,42.2670,0.0305,,,,-99.0,,-99.0,-99.0,26.8508,,26.8516,,0.6343,85.3369,,7.549,,7.3695E+02,,1.0050E-01,,6.8632,6.8638,0.8752,,7.867,27.311,,,,,,,,,,,,
CalCOFI,2007SR,035,37,2007_035u,19-Jul-2020 16:31:03,19-Jul-2020 08:31:03,33.82318,-118.62728,086.7 035.0,086.7,035.0,472.000,475.932,,6.9300,,6.9345,,6.9323,34.2577,,34.2579,34.2599,,34.2615,34.2597,0.5384,,0.5449,0.6235,1.8585,,0.4956,0.8506,0.7371,23.415,23.9548,41.3300,80.829,,43.4271,42.3786,0.0315,,,,-99.0,,-99.0,-99.0,26.8497,,26.8509,,0.6360,85.3002,,7.549,,7.3695E+02,,9.8385E-02,,6.8853,6.8898,0.8752,,7.923,27.354,,,,,,,,,,,,
CalCOFI,2007SR,035,37,2007_035u,19-Jul-2020 16:31:04,19-Jul-2020 08:31:04,33.82318,-118.62728,086.7 035.0,086.7,035.0,471.000,474.922,,6.9719,,6.9733,,6.9726,34.2605,,34.2607,34.2627,,34.2643,34.2625,0.5413,,0.5479,0.6265,1.8544,,0.4858,0.8402,0.7334,23.543,24.0884,41.4124,80.651,,43.1350,42.2737,0.0316,,,,-99.0,,-99.0,-99.0,26.8462,,26.8477,,0.6400,85.2144,,7.549,,7.3695E+02,,1.0101E-01,,6.9272,6.9286,0.8752,,7.974,27.318,,,,,,,,,,,,
CalCOFI,2007SR,035,37,2007_035u,19-Jul-2020 16:31:05,19-Jul-2020 08:31:05,33.82318,-118.62728,086.7 035.0,086.7,035.0,470.000,473.913,,6.9906,,6.9909,,6.9908,34.2598,,34.2600,34.2611,,34.2627,34.2614,0.5466,,0.5534,0.6319,1.8541,,0.4851,0.8395,0.7357,23.772,24.3275,41.5597,80.640,,43.1169,42.3383,0.0304,,,,-99.0,,-99.0,-99.0,26.8431,,26.8441,,0.6416,85.1804,,7.549,,7.3629E+02,,9.9771E-02,,6.9459,6.9462,0.8752,,8.055,27.325,,,,,,,,,,,,
CalCOFI,2007SR,035,37,2007_035u,19-Jul-2020 16:31:06,19-Jul-2020 08:31:06,33.82317,-118.62728,086.7 035.0,086.7,035.0,469.000,472.903,,6.9983,,6.9983,,6.9983,34.2588,,34.2590,34.2602,,34.2618,34.2604,0.5537,,0.5609,0.6392,1.8566,,0.4911,0.8458,0.7425,24.081,24.6501,41.7585,80.748,,43.2941,42.5263,0.0321,,,,-99.0,,-99.0,-99.0,26.8413,,26.8423,,0.6415,85.1809,,7.550,,7.3505E+02,,9.5290E-02,,6.9537,6.9536,0.8752,,8.161,27.366,,,,,,,,,,,,
CalCOFI,2007SR,035,37,2007_035u,19-Jul-2020 16:31:07,19-Jul-2020 08:31:07,33.82316,-118.62728,086.7 035.0,086.7,035.0,468.000,471.894,,7.0018,,7.0023,,7.0021,34.2572,,34.2574,34.2583,,34.2599,34.2587,0.5574,,0.5647,0.6430,1.8559,,0.4894,0.8440,0.7435,24.241,24.8171,41.8615,80.718,,43.2449,42.5532,0.0313,,,,-99.0,,-99.0,-99.0,26.8395,,26.8403,,0.6415,85.1816,,7.550,,7.3505E+02,,9.4763E-02,,6.9573,6.9578,0.8752,,8.216,27.358,,,,,,,,,,,,
CalCOFI,2007SR,035,37,2007_035u,19-Jul-2020 16:31:08,19-Jul-2020 08:31:08,33.82317,-118.62728,086.7 035.0,086.7,035.0,467.000,470.884,,7.0072,,7.0075,,7.0074,34.2554,,34.2556,34.2568,,34.2584,34.2570,0.5627,,0.5703,0.6485,1.8524,,0.4810,0.8352,0.7419,24.475,25.0614,42.0120,80.568,,42.9987,42.5054,0.0306,,,,-99.0,,-99.0,-99.0,26.8373,,26.8384,,0.6408,85.1979,,7.550,,7.3505E+02,,9.2187E-02,,6.9628,6.9631,0.8752,,8.296,27.310,,,,,,,,,,,,
CalCOFI,2007SR,035,37,2007_035u,19-Jul-2020 16:31:09,19-Jul-2020 08:31:09,33.82318,-118.62728,086.7 035.0,086.7,035.0,466.000,469.875,,7.0150,,7.0156,,7.0153,34.2548,,34.2550,34.2559,,34.2575,34.2563,0.5771,,0.5853,0.6633,1.8595,,0.4980,0.8531,0.7582,25.098,25.7117,42.4129,80.873,,43.4993,42.9561,0.0315,,,,-99.0,,-99.0,-99.0,26.8358,,26.8366,,0.6398,85.2178,,7.550,,7.3505E+02,,9.2259E-02,,6.9706,6.9712,0.8752,,8.509,27.418,,,,,,,,,,,,
CalCOFI,2007SR,035,37,2007_035u,19-Jul-2020 16:31:10,19-Jul-2020 08:31:10,33.82318,-118.62728,086.7 035.0,086.7,035.0,465.000,468.865,,7.0233,,7.0241,,7.0237,34.2535,,34.2537,34.2548,,34.2564,34.2551,0.5843,,0.5928,0.6707,1.8588,,0.4963,0.8513,0.7610,25.413,26.0405,42.6155,80.845,,43.4533,43.0344,0.0311,,,,-99.0,,-99.0,-99.0,26.8336,,26.8345,,0.6401,85.2129,,7.550,,7.3505E+02,,9.2345E-02,,6.9790,6.9798,0.8752,,8.617,27.414,,,,,,,,,,,,
CalCOFI,2007SR,035,37,2007_035u,19-Jul-2020 16:31:11,19-Jul-2020 08:31:11,33.82318,-118.62728,086.7 035.0,086.7,035.0,464.000,467.856,,7.0502,,7.0515,,7.0509,34.2503,,34.2505,34.2518,,34.2534,34.2520,0.5883,,0.5970,0.6748,1.8544,,0.4858,0.8402,0.7575,25.585,26.2201,42.7262,80.654,,43.1399,42.9331,0.0311,,,,-99.0,,-99.0,-99.0,26.8274,,26.8284,,0.6394,85.2271,,7.550,,7.3505E+02,,9.5729E-02,,7.0059,7.0072,0.8752,,8.681,27.366,,,,,,,,,,,,